Flag for Canada Weather past 2 weeks in Burlington, Ontario, Canada

Now
61 °F

Cool.


Feels Like: 61 °F
Forecast: 57 / 72 °F
Wind: 2 mph from South

Location: Burlington Piers

Current Time: Jul 31, 2014 at 8:17:26 AM

Latest Report: Jul 31, 2014 at 7:00 AM


Visibility: N/A

Pressure: 29.98 "Hg

Humidity: 76%

Dew point: 53 °F

Location of BurlingtonLocation

Historic Weather in Burlington — Graph

°F

Burlington temperature yesterday

Maximum temperature yesterday: 72 °F (at 2:00 PM)
Minimum temperature yesterday: 60 °F (at 6:00 AM)
Average temperature yesterday: 66 °F

Past Weeks' High & Low Weather Summary

 TemperatureHumidityPressure
High83 °F (Jul 22, 7:00 PM)100% (Jul 21, 1:00 AM)30.24 "Hg (Jul 21, 1:00 AM)
Low53 °F (Jul 18, 6:00 AM)33% (Jul 17, 6:00 PM)29.56 "Hg (Jul 27, 9:00 PM)
Average66 °F72%29.97 "Hg
* Reported Jul 16 7:00 AM — Jul 31 7:00 AM, Burlington, Weather by CustomWeather, © 2014

Note: Actual official high and low records may vary slightly from our data, if they occured in-between our weather recording intervals... More about our weather records

Advertising

Burlington weather history for previous 24 hours

 ConditionsComfort  
Time TempWeatherWind HumidityBarometerVisibility
7:00 AM
Jul 31
61 °FCool.2 mph76%29.98 "HgN/A
6:00 AM61 °FCool.3 mph68%29.98 "HgN/A
5:00 AM61 °FCool.3 mph72%29.98 "HgN/A
4:00 AM63 °FMild.5 mph70%29.96 "HgN/A
3:00 AM63 °FMild.3 mph73%29.96 "HgN/A
2:00 AM63 °FMild.3 mph72%29.96 "HgN/A
1:00 AM63 °FMild.3 mph69%29.97 "HgN/A
12:00 AM64 °FMild.3 mph66%29.98 "HgN/A
11:00 PM
Jul 30
65 °FMild.5 mph62%29.98 "HgN/A
10:00 PM67 °FMild.5 mph60%29.97 "HgN/A
9:00 PM69 °FMild.3 mph56%29.95 "HgN/A
8:00 PM72 °FMild.5 mph46%29.94 "HgN/A
7:00 PM71 °FMild.6 mph48%29.93 "HgN/A
6:00 PM71 °FMild.5 mph59%29.93 "HgN/A
5:00 PM70 °FMild.6 mph58%29.93 "HgN/A
4:00 PM67 °FMild.12 mph63%29.93 "HgN/A
3:00 PM71 °FMild.7 mph57%29.93 "HgN/A
2:00 PM72 °FMild.9 mph56%29.93 "HgN/A
1:00 PM70 °FMild.8 mph63%29.93 "HgN/A
12:00 PM69 °FMild.8 mph69%29.94 "HgN/A
11:00 AM66 °FMild.5 mph79%29.96 "HgN/A
10:00 AM64 °FMild.6 mph83%29.96 "HgN/A
9:00 AM63 °FMild.5 mph83%29.96 "HgN/A
8:00 AM61 °FCool.3 mph86%29.95 "HgN/A
Weather by CustomWeather, © 2014

See weather overviewHow to use our weather pages